Regional Weather Roundup
Issued by NWS

Home | Current Version | Previous Version | Text Only | Print | Product List | Glossary Off
Versions: 1 2 3 4 5 6 7 8 9 10 11 12 13 14 15 16 17 18 19 20 21 22 23 24 25 26 27 28 29 30 31 32 33 34 35 36 37 38 39 40 41 42 43 44 45 46 47 48 49 50

000
ASUS43 KMPX 261510
RWRMN
WEATHER ROUNDUP FOR MINNESOTA
NATIONAL WEATHER SERVICE TWIN CITIES/CHANHASSEN MN
1000 AM CDT FRI MAY 26 2017


NOTE: "FAIR" INDICATES FEW OR NO CLOUDS BELOW 12,000 FEET WITH NO
SIGNIFICANT WEATHER AND/OR OBSTRUCTIONS TO VISIBILITY. N/A MEANS
CURRENT SKY AND/OR WEATHER CONDITIONS ARE NOT AVAILABLE.

MNZ060>063-068>070-261600-
   Twin Cities Metro

CITY           SKY/WX    TMP DP  RH WIND       PRES   REMARKS
TWIN CITIES    CLOUDY    66  53  63 S9        29.74R
ST PAUL        CLOUDY    65  57  75 SE9       29.74R
CRYSTAL        PTSUNNY   67  52  58 S6        29.72R
BLAINE         CLOUDY    68  55  64 S8        29.73R
LAKEVILLE      CLOUDY    64  55  72 S5        29.74S
EDEN PRAIRIE   CLOUDY    67  54  63 S12       29.73R
SOUTH ST PAUL  CLOUDY    66  55  68 SE7       29.74S
LAKE ELMO      PTSUNNY   64  55  72 S10       29.76R
$$
MNZ001>005-007-008-013>017-022>024-027-028-261600-
   Northwest Minnesota

CITY           SKY/WX    TMP DP  RH WIND       PRES   REMARKS
BEMIDJI        SUNNY     65  51  62 SW3       29.66S
HALLOCK        SUNNY     66  50  55 SW8       29.60S
ROSEAU         MOSUNNY   64  50  59 CALM      29.62R
WARROAD        SUNNY     63  52  67 CALM      29.62S
THIEF RVR FALL SUNNY     63  48  58 SW9       29.65R
CROOKSTON      SUNNY     63  48  59 W7        29.65R
FOSSTON        SUNNY     64  48  55 SW6       29.66S
DETROIT LAKES  SUNNY     63  46  55 W6        29.69S
MOORHEAD       SUNNY     63  48  59 W9        29.69S
PARK RAPIDS    SUNNY     67  50  54 NW6       29.67R
MAHNOMEN       FAIR      63  47  57 W7        29.67S
$$
MNZ006-009>011-018-025>026-261600-
   North Central Minnesota

CITY           SKY/WX    TMP DP  RH WIND       PRES   REMARKS
BAUDETTE       CLOUDY    63  53  70 SW6       29.63S
FLAG ISLAND    CLOUDY    55  52  88 S8        29.60F
INTL FALLS     CLOUDY    63  53  70 S7        29.64F
WASKISH        PTSUNNY   64  55  72 SW3       29.65R
BIG FORK       CLOUDY    64  55  72 S8        29.67R
LONGVILLE      SUNNY     64  55  72 SE5       29.67S
GRAND RAPIDS   MOSUNNY   61  54  77 S12       29.71R
CRANE LAKE     PTSUNNY   63  52  67 S5        29.69F
ORR            CLOUDY    63  50  63 S14       29.65F
COOK           MOSUNNY   61  52  72 S8G20     29.69F
WALKER         FAIR      63  54  71 SW5       29.67R
$$
MNZ012-019>021-037-261600-
   Northeast Minnesota

CITY           SKY/WX    TMP DP  RH WIND       PRES   REMARKS
DULUTH         CLOUDY    54  49  83 SE8       29.74R
ELY            CLOUDY    59  48  67 S9        29.72S
HIBBING        CLOUDY    59  53  80 S9        29.70S
EVELETH        MOSUNNY   58  49  74 S7        29.72F
DULUTH HARBOR  CLOUDY    46  43  87 E6        29.76S
TWO HARBORS    CLOUDY    54  48  82 CALM      29.74R
SILVER BAY     CLOUDY    48  46  93 E3        29.74S
GRAND MARAIS     N/A     46  43  89 E10       29.77S
G MARAIS ARPRT CLOUDY    57  46  67 CALM      29.78S
$$
MNZ029>031-032-039>041-046>048-054>057-064-261600-
   West Central Minnesota

CITY           SKY/WX    TMP DP  RH WIND       PRES   REMARKS
FERGUS FALLS   SUNNY     61  50  67 W7        29.69S
WHEATON        SUNNY     64  48  55 W13       29.74R
MORRIS         SUNNY     64  52  63 NW10      29.71S
ALEXANDRIA     SUNNY     63  51  65 W13       29.71R
ELBOW LAKE     FAIR      61  51  67 NW8       29.72R
WADENA         SUNNY     63  54  72 W7        29.69R
GLENWOOD       SUNNY     63  52  67 W5        29.72R
APPLETON       SUNNY     64  48  55 NW9       29.72S
BENSON         SUNNY     66  50  55 N9        29.73S
ORTONVILLE     SUNNY     64  48  55 W9        29.73R
MADISON        SUNNY     66  54  63 W12       29.74R
WILLMAR        FAIR      64  54  68 NW10      29.73R
$$
MNZ033>034-036-042>043-049>051-058-059-261600-
   Central Minnesota

CITY           SKY/WX    TMP DP  RH WIND       PRES   REMARKS
ST CLOUD       CLOUDY    66  57  72 S5        29.70R
SAUK CENTRE    FAIR      64  55  73 W9        29.71R
PAYNESVILLE    MOSUNNY   64  54  69 W5        29.72S
AITKIN         MOSUNNY   63  55  77 S6        29.68R
PINE RIVER     SUNNY     64  55  72 SE6       29.71S
BRAINERD       SUNNY     65  55  70 VRB6      29.69S
STAPLES        SUNNY     64  55  72 W3        29.68S
LONG PRAIRIE   FAIR      63  54  72 S9        29.70R
LITTLE FALLS   MOSUNNY   63  54  72 SW6       29.70S
LITCHFIELD     CLOUDY    64  57  77 W7        29.73R
BUFFALO        CLOUDY    65  54  67 S9        29.73R
MAPLE LAKE     CLOUDY    67  57  70 S3        29.73R
HUTCHINSON     SUNNY     66  57  72 CALM      29.73R
$$
MNZ037-044-045-052-053-261600-
   East Central Minnesota

CITY           SKY/WX    TMP DP  RH WIND       PRES   REMARKS
PRINCETON      CLOUDY    66  55  68 S9        29.72R
MORA           PTSUNNY   63  54  72 S7        29.73R
CAMBRIDGE      PTSUNNY   70  55  60 S9        29.70R
RUSH CITY      CLOUDY    65  55  72 S10       29.72S
MOOSE LAKE     CLOUDY    61  54  77 E3        29.70S
HINCKLEY       FAIR      63  55  77 S9        29.72S
CLOQUET        CLOUDY    54  48  82 SE6       29.73S
MCGREGOR       PTSUNNY   63  55  77 S8        29.70S
$$
MNZ071>073-080-081-089-090-097-098-261600-
   Southwest Minnesota

CITY           SKY/WX    TMP DP  RH WIND       PRES   REMARKS
MONTEVIDEO     SUNNY     66  54  63 NW9       29.73R
CANBY          MOSUNNY   64  51  63 NW10      29.76R
MARSHALL       SUNNY     65  52  62 NW13      29.75R
REDWOOD FALLS  MOSUNNY   65  51  60 NW9       29.73R
OLIVIA         MOSUNNY   64  52  63 NW8       29.72R
PIPESTONE      SUNNY     63  46  55 N12G17    29.78R
WINDOM         MOSUNNY   66  52  59 NW8       29.76R
WORTHINGTON    MOSUNNY   66  52  60 NW10      29.78R
JACKSON        CLOUDY    64  54  68 CALM      29.76R
TRACY          SUNNY     66  53  63 NW14      29.76R
SLAYTON        SUNNY     63  51  64 NW14      29.78R
$$
MNZ065>067-074>077-082>085-091>093-261600-
   South Central Minnesota

CITY           SKY/WX    TMP DP  RH WIND       PRES   REMARKS
MANKATO        MOSUNNY   64  54  68 S12       29.75R
NEW ULM        PTSUNNY   64  55  72 S5        29.74R
ST JAMES       PTSUNNY   66  57  72 SW7       29.75R
FAIRMONT       CLOUDY    64  55  72 S13       29.75S
GLENCOE        CLOUDY    66  60  79 S5        29.72S
FARIBAULT      PTSUNNY   66  55  68 S8        29.76R
OWATONNA       CLOUDY    64  54  68 S13       29.76R
WASECA         CLOUDY    63  52  67 S9        29.77R
ALBERT LEA     CLOUDY    63  55  77 S6        29.76S
$$
MNZ078>079-086>088-094>096-261600-
   Southeast Minnesota

CITY           SKY/WX    TMP DP  RH WIND       PRES   REMARKS
ROCHESTER      CLOUDY    64  56  75 S10       29.78R
RED WING       CLOUDY    66  54  63 CALM      29.75S
STANTON        CLOUDY    66  55  68 S9        29.74S
DODGE CENTER   CLOUDY    64  55  72 S10       29.77S
WINONA         CLOUDY    66  59  77 SE5       29.77S
AUSTIN         CLOUDY    63  54  72 S7        29.76F
PRESTON        PTSUNNY   65  55  69 S8        29.79R
$$
ABBREVIATIONS USED IN REMARKS
   TC - TEMPERATURES IN CELSIUS
  WCI - WIND CHILL INDEX
   HX - HEAT INDEX
  VSB - VISIBILITY
$$




USA.gov is the U.S. government's official web portal to all federal, state and local government web resources and services.